GOES 14 (35491 NORAD) Tracking and Keplerian Element Data

This shows tracking and keplerian element data for the satellite.

Feedback or suggestion? Click here.




ElementValue
Catalog35491
NameGOES 14
Epoch Orbit159
Epoch Day34.59071523
Epoch Year2025
RAAN90.3673
Inclination0.387
Eccentricity0.0001624
Argument of Perigee160.9871
Mean Anonmoly347.3875
Mean Motion1.00274832
Decay Rate-6.6E-07
L11 35491U 09033A 25034.59071523 -.00000066 00000+0 00000+0 0 9994
L22 35491 0.3870 90.3673 0001624 160.9871 347.3875 1.00274832 1594



Live tracking and technical data element details for GOES 14 (NORAD 35491). GOES 14 can be tracked NOW for your location showing map with azimuth and elevation plus other details from your city location.







IsCatalogInMostPopularTable: catalog: 35491, numindb: 376
Update: records affected: 1



GetName: 35491 GOES 14

Hit Count: updated at: Thu, 15 May 2025 19:41:33 GMT